TimeCDT,TemperatureF,Dew PointF,Humidity,Sea Level PressureIn,VisibilityMPH,Wind Direction,Wind SpeedMPH,Gust SpeedMPH,PrecipitationIn,Events,Conditions,WindDirDegrees,DateUTC
12:52 AM,50.0,46.0,86,29.88,8.0,NNE,10.4,-,N/A,,Overcast,20,2012-10-22 05:52:00
2:52 AM,48.9,45.0,86,29.85,8.0,North,10.4,-,N/A,,Partly Cloudy,360,2012-10-22 07:52:00
3:52 AM,48.9,45.0,86,29.85,8.0,North,10.4,-,N/A,,Overcast,360,2012-10-22 08:52:00
4:52 AM,48.9,44.1,83,29.85,8.0,North,11.5,-,N/A,,Mostly Cloudy,360,2012-10-22 09:52:00
5:38 AM,48.2,44.6,87,29.86,8.0,North,11.5,-,N/A,,Mostly Cloudy,360,2012-10-22 10:38:00
9:34 AM,51.8,44.6,76,29.88,9.0,North,12.7,-,N/A,,Mostly Cloudy,10,2012-10-22 14:34:00
9:52 AM,51.1,44.1,77,29.89,9.0,NNE,13.8,-,N/A,,Mostly Cloudy,20,2012-10-22 14:52:00
10:52 AM,55.0,46.0,72,29.89,9.0,NNE,13.8,-,N/A,,Mostly Cloudy,20,2012-10-22 15:52:00
11:04 AM,53.6,46.4,77,29.88,9.0,NNE,12.7,-,N/A,,Overcast,20,2012-10-22 16:04:00
11:52 AM,57.9,48.0,70,29.87,9.0,NNE,12.7,-,N/A,,Overcast,30,2012-10-22 16:52:00
12:17 PM,60.8,48.2,63,29.87,9.0,North,9.2,-,N/A,,Overcast,10,2012-10-22 17:17:00
12:32 PM,59.0,48.2,67,29.87,9.0,NNE,10.4,-,N/A,,Overcast,20,2012-10-22 17:32:00
12:52 PM,60.1,48.9,67,29.87,9.0,NE,9.2,-,N/A,,Overcast,40,2012-10-22 17:52:00
1:52 PM,60.1,50.0,69,29.86,8.0,NNE,10.4,-,N/A,,Overcast,30,2012-10-22 18:52:00
3:13 PM,64.4,51.8,64,29.83,9.0,NNE,13.8,-,N/A,,Scattered Clouds,20,2012-10-22 20:13:00
3:32 PM,64.4,51.8,64,29.83,8.0,NE,12.7,-,N/A,,Mostly Cloudy,40,2012-10-22 20:32:00
3:52 PM,64.0,53.1,67,29.82,8.0,NE,12.7,-,N/A,,Overcast,50,2012-10-22 20:52:00
4:13 PM,64.4,53.6,68,29.82,8.0,NE,10.4,-,N/A,,Overcast,40,2012-10-22 21:13:00
4:52 PM,64.0,53.1,67,29.83,8.0,NE,11.5,-,N/A,,Overcast,50,2012-10-22 21:52:00
5:52 PM,63.0,54.0,72,29.83,7.0,ENE,10.4,-,N/A,,Mostly Cloudy,60,2012-10-22 22:52:00
6:52 PM,61.0,53.1,75,29.83,9.0,NE,12.7,-,N/A,,Mostly Cloudy,50,2012-10-22 23:52:00
8:10 PM,59.0,53.6,82,29.83,6.0,ENE,12.7,-,N/A,,Haze,60,2012-10-23 01:10:00
8:52 PM,59.0,55.9,90,29.82,5.0,ENE,11.5,-,N/A,,Overcast,70,2012-10-23 01:52:00
9:12 PM,59.0,55.4,88,29.81,4.0,ENE,15.0,-,N/A,,Overcast,60,2012-10-23 02:12:00
11:37 PM,60.8,57.2,88,29.77,5.0,East,9.2,-,N/A,,Overcast,80,2012-10-23 04:37:00
11:48 PM,60.8,57.2,88,29.77,5.0,ENE,10.4,-,N/A,,Overcast,70,2012-10-23 04:48:00
11:52 PM,61.0,57.9,90,29.77,5.0,East,10.4,-,N/A,,Overcast,80,2012-10-23 04:52:00